Terug naar catalogus

THORAD AGENA D DEB

ActiefSSO
NORAD 4773·DEBRIS·🇺🇸 United States

Gelanceerd Apr 8, 1970 vanaf Vandenberg Space Force Base

Loading…

Volgende Passages

TLE

Source: Space-Track
1  4773U 70025DT  26221.70546306  .00000031  00000-0  10832-3 0  9990
2  4773 100.0236 274.3924 0032328 120.9055   0.7625 13.57124254775357

Volg THORAD AGENA D DEB in realtime met AllMySat

Download on the App Store